{"data":{"norad_id":44794,"epoch":"2026-09-18T02:47:33.217152Z","epoch_age_seconds":220381,"freshness":"STALE","line1":"1 44794U 19078B   26261.11635668 -.00000036  00000+0  00000+0 0  9994","line2":"2 44794  53.8218 296.5089 0002880  29.9713 330.1007  1.86228016 46384","mean_motion":1.86228016,"eccentricity":0.000288,"inclination_deg":53.8218,"raan_deg":296.5089,"arg_perigee_deg":29.9713,"mean_anomaly_deg":330.1007,"bstar":0,"rev_number":4638,"period_min":773.24563238648,"perigee_km":21520.312595679,"apogee_km":21536.386731997,"semimajor_km":27906.486663838,"source":"CELESTRAK","updated_at":"2026-09-20T09:00:46.713641Z"}}